Back to catalog

THOR AGENA B R/B

AlivePO
NORAD 426·ROCKET BODY·🇺🇸 United States

Launched Sep 29, 1962 from Vandenberg Space Force Base

Loading…

Next Passes (next 24 hours)

TLE

FreshSource: Space-Track

Epoch: Sep 14, 2026, 13:37 UTC

1 00426U 62049B   26257.56762152  .00000070  00000-0  71281-4 0  9999
2 00426  80.4731 179.8041 0018137   1.3758 171.6467 13.68768084192354

Track THOR AGENA B R/B in real time with AllMySat

Download on the App Store